Regional Weather Roundup
Issued by NWS

Home | Current Version | Previous Version | Graphics & Text | Print | Product List | Glossary On
Versions: 1 2 3 4 5 6 7 8 9 10 11 12 13 14 15 16 17 18 19 20 21 22 23 24 25 26 27 28 29 30 31 32 33 34 35 36 37 38 39 40 41 42 43 44 45 46 47 48 49 50
219
ASUS45 KABQ 190301
RWRNM
NEW MEXICO REGIONAL WEATHER ROUNDUP
NATIONAL WEATHER SERVICE ALBUQUERQUE NM
800 PM MST WED JAN 18 2017

NOTE: "FAIR" MEANS FEW OR NO CLOUDS BELOW 12,000 FEET AGL WITH NO
       SIGNIFICANT WEATHER OR OBSTRUCTIONS TO VISION.

      THIS PRODUCT IS RELEASED AS TWO VERSIONS.  ONE VERSION NEAR
      THE TOP OF THE HOUR CONTAINING PRELIMINARY DATA FROM ALBUQUERQUE
      AND OTHER STATIONS.  A FINAL VERSION WITH ADDITIONAL DATA IS
      ISSUED ABOUT 10 MINUTES AFTER THE HOUR.

NMZ501-503-504-510>518-190400-
NORTHWEST PLATEAU/NORTHCENTRAL MOUNTAINS

CITY           SKY/WX    TMP DP  RH WIND       PRES   REMARKS
FARMINGTON     FAIR      34  28  79 CALM      30.00F
LOS ALAMOS     FAIR      33  21  62 W6        29.99S WCI  27
SANTA FE       MOCLDY    34  27  75 N8        29.98S WCI  27
TAOS           MOCLDY    27  18  69 CALM      29.97F
ANGEL FIRE     FAIR      25  20  82 CALM      29.94F

$$
NMZ402-403-502-505>509-190400-
WESTCENTRAL MOUNTAINS/SOUTHWEST MOUNTAINS

CITY           SKY/WX    TMP DP  RH WIND       PRES   REMARKS
GALLUP         FAIR      32  28  85 W6        30.04S WCI  26
GRANTS         MOCLDY    31  27  84 CALM      30.06S
SILVER CITY    FAIR      36  33  89 NW6       30.07R WCI  31

$$
NMZ407-409-411-412-190400-
SOUTHERN DESERTS

CITY           SKY/WX    TMP DP  RH WIND       PRES   REMARKS
DEMING         CLOUDY    47  37  68 W6        30.05S
LAS CRUCES     MOCLDY    46  37  70 W9        30.05R
HOLLOMAN AFB   CLOUDY    46  39  76 CALM      30.04S
ALAMOGORDO     CLOUDY    46  37  71 S7        30.02S
T OR C         CLOUDY    46  34  62 NW7       30.02R

$$
NMZ519>523-190400-
CENTRAL VALLEYS/CENTRAL HIGHLANDS

CITY           SKY/WX    TMP DP  RH WIND       PRES   REMARKS
ALBUQUERQUE    MOCLDY    43  31  62 N8        30.00S
DOUBLE EAGLE   MOCLDY    36  30  80 NW5       30.02S WCI  32
MORIARTY ARPT  FAIR      35  27  73 NW10      29.98F WCI  27
CLINES CORNERS FAIR      30  24  78 NW25      29.92F WCI  16
BELEN          FAIR      41  28  60 NW9G16    30.01S
SOCORRO        FAIR      43  30  59 NW8       30.01F

$$
NMZ524>526-539-540-190400-
SOUTHCENTRAL MOUNTAINS

CITY           SKY/WX    TMP DP  RH WIND       PRES   REMARKS
RUIDOSO        FAIR      34  32  93 NW7       29.99S WCI  28

$$
NMZ527>531-190400-
NORTHEAST HIGHLANDS/NORTHEAST PLAINS

CITY           SKY/WX    TMP DP  RH WIND       PRES   REMARKS
LAS VEGAS      FAIR      31  19  61 W10       29.86F WCI  22
RATON          FAIR      28  25  88 CALM      29.78F
CLAYTON        FAIR      37  30  75 W8        29.76F WCI  31

$$
NMZ532>537-190400-
EASTCENTRAL PLAINS

CITY           SKY/WX    TMP DP  RH WIND       PRES   REMARKS
TUCUMCARI      FAIR      43  33  68 SW13      29.78F
CANNON AFB     CLOUDY    43  43  99 SW12      29.88F
CLOVIS AIRPORT FAIR      41  36  81 SW13      29.88F

$$
NMZ028-029-538-190400-
SOUTHEAST PLAINS

CITY           SKY/WX    TMP DP  RH WIND       PRES   REMARKS
ROSWELL        CLOUDY    47  34  60 SW9       29.94S
ARTESIA        FAIR      50  41  71 SW16      29.96S
CARLSBAD       FAIR      49  41  74 SW9       29.97F


$$




USA.gov is the U.S. government's official web portal to all federal, state and local government web resources and services.